Location: �quirre
(50.4736°N, 2.2351°E)
Time: 05:37:12
(UTC+00:00)

ERBS - Pass Details

Date: 07 August 2020
Orbit: 412 x 420 km, 57.0° (Epoch: 19 September)

Event Time Altitude Azimuth Distance (km) Brightness Sun altitude
Rises 01:21:34 0° 302° (WNW) 2,356 6.2 -20.7°
Reaches altitude 10° 01:23:40 10° 305° (NW) 1,490 5.2 -20.5°
Maximum altitude 01:26:58 68° 29° (NNE) 449 2.5 -20.3°
Drops below altitude 10° 01:30:16 10° 113° (ESE) 1,483 5.0 -20.1°
Sets 01:32:21 0° 116° (ESE) 2,343 6.0 -20.0°
